THOR ABLESTAR DEB, 658

Orbit data source: Space-Track

THOR ABLESTAR DEB, 658 is space debris in LEO originally from a launch on Thu, 29 Jun 1961 UTC launched from the Air Force Eastern Test Range (AFETR). Debris objects in space refer to the collection of defunct objects orbiting the Earth. Examples of debris include non-operational satellites, rocket bodies, and fragments generated from explosions, collisions, or faulty payload assembly.

Loading next visibility...
Identifier
658, 1961-015HK
Orbit
LEO
Last TLE update
13 hours ago
Origin
Manufacturer
Unknown
Mission
Spacecraft
Bus & Motor
Unknown
Mass
Unknown
Launch date (UTC)
1961-06-29 (64 years ago)
Launch vehicle
Unknown
Launch site
Air Force Eastern Test Range (AFETR)
Object type
Payload
Rocket body
Debris
Shape & HBR
Unknown
Radar Cross Section
Small (<0.1 m²)

Expand to show TLE details & history

TLE from 13 hours ago
0 THOR ABLESTAR DEB
1   658U 61015HK  25182.54371977  .00000967  00000-0  13090-2 0  9990
2   658  65.8647 232.3080 0348198  16.7742 344.4481 13.41339326 13068
Epoch: 2025-07-01T13:02Z
TLE epoch observation values (Epoch: 2025-07-01T13:02:57.388Z)
Latitude
-0.00003°
Longitude
116.73121°
Altitude
855.914 km
Speed
7.548 km/s
True Right ascension
15h 29m 13s
True Declination
0° 00' 00"
Sunlit
Object was in full shadow at epoch
Visualization orbit readout
Latitude
52.3406°
Longitude
150.76217°
Altitude
918.629 km
Speed
7.493 km/s
Apparent Right ascension
21h 55m 55s
Apparent Declination
18° 51' 18"
Sunlit
Object is in daylight
Visualization observer readout
Local Sidereal Time
13:32:13
Azimuth
51.748° ENE
Elevation
-12.621°
Doppler factor
1
Orbital elements
Apogee altitude
1,363.315 km
Perigee altitude
842.344 km
Semi-major axis
7,480.967 km
Eccentricity
0.03482
Inclination
65.8647°
RAAN
232.308°
Arg. of periapsis
16.7742°
True anomaly
Unknown
Mean anomaly
344.4481°
Eccentric anomaly
Unknown
Mean motion
3.35434 °/min
Orbital period
107.32 mins
BSTAR
0.001309
Loading maneuver chart data...
Loading SW <> Apogee altitude chart data...

THOR ABLESTAR DEB Visibility forecast

Observer location: undefined°, undefined°

Span
Click to sort rows by Start time (UTC) header in descending order
Start Az.
Max El. time (UTC)
Max El. Az.
Max El.
End time (UTC)
End Az.
5 mins2025-07-02 03:30:14.754Z127.895° SE2025-07-02 03:32:14.754Z105.386° ESE13.922°2025-07-02 03:35:14.754Z73.114° E
9 mins2025-07-02 05:18:14.754Z219.869° SW2025-07-02 05:22:14.754Z323.738° NNW43.579°2025-07-02 05:27:14.754Z26.26° NE
4 mins2025-07-02 07:12:14.754Z308.62° NW2025-07-02 07:14:14.754Z331.199° NNW14.267°2025-07-02 07:16:14.754Z351.783° N
12 mins2025-07-02 12:50:14.754Z351.699° N2025-07-02 12:55:14.754Z50.21° ENE30.206°2025-07-02 13:02:14.754Z113.499° SE
13 mins2025-07-02 14:40:14.754Z317.475° NNW2025-07-02 14:46:14.754Z240.084° WSW39.215°2025-07-02 14:53:14.754Z172.656° S
|